Time,TemperatureF,DewpointF,PressureIn,WindDirection,WindDirectionDegrees,WindSpeedMPH,WindSpeedGustMPH,Humidity,HourlyPrecipIn,Conditions,Clouds,dailyrainin,SoftwareType,DateUTC
2016-12-03 00:07:00,30.1,26.0,29.87,WNW,299,12.0,19.0,86,0.00,,,0.00,weatherlink.com 1.10,2016-12-03 05:07:00,
2016-12-03 00:22:00,30.1,26.0,29.87,WNW,300,8.0,16.0,86,0.00,,,0.00,weatherlink.com 1.10,2016-12-03 05:22:00,
2016-12-03 00:38:00,30.3,27.0,29.87,NW,323,6.0,18.0,86,0.00,,,0.00,weatherlink.com 1.10,2016-12-03 05:38:00,
2016-12-03 00:52:00,30.4,27.0,29.88,NNW,329,8.0,15.0,86,0.00,,,0.00,weatherlink.com 1.10,2016-12-03 05:52:00,
2016-12-03 01:08:00,30.4,27.0,29.88,NNW,338,8.0,21.0,86,0.00,,,0.00,weatherlink.com 1.10,2016-12-03 06:08:00,
2016-12-03 01:23:00,30.4,26.0,29.89,NNW,329,11.0,16.0,85,0.00,,,0.00,weatherlink.com 1.10,2016-12-03 06:23:00,
2016-12-03 01:38:00,30.4,26.0,29.89,NNW,337,7.0,15.0,85,0.00,,,0.00,weatherlink.com 1.10,2016-12-03 06:38:00,
2016-12-03 01:53:00,30.4,26.0,29.90,NW,319,10.0,19.0,85,0.00,,,0.00,weatherlink.com 1.10,2016-12-03 06:53:00,
2016-12-03 02:08:00,30.4,26.0,29.91,NW,320,11.0,20.0,84,0.00,,,0.00,weatherlink.com 1.10,2016-12-03 07:08:00,
2016-12-03 02:23:00,30.4,26.0,29.91,NW,307,8.0,15.0,85,0.00,,,0.00,weatherlink.com 1.10,2016-12-03 07:23:00,
2016-12-03 02:38:00,30.4,26.0,29.92,NNW,336,12.0,18.0,84,0.00,,,0.00,weatherlink.com 1.10,2016-12-03 07:38:00,
2016-12-03 02:53:00,30.4,26.0,29.92,NW,315,7.0,18.0,85,0.00,,,0.00,weatherlink.com 1.10,2016-12-03 07:53:00,
2016-12-03 03:08:00,30.4,26.0,29.92,NNW,336,10.0,16.0,85,0.00,,,0.00,weatherlink.com 1.10,2016-12-03 08:08:00,
2016-12-03 03:23:00,30.3,27.0,29.92,NNW,339,7.0,17.0,86,0.00,,,0.00,weatherlink.com 1.10,2016-12-03 08:23:00,
2016-12-03 03:38:00,30.3,26.0,29.92,NW,319,11.0,17.0,85,0.00,,,0.00,weatherlink.com 1.10,2016-12-03 08:38:00,
2016-12-03 03:53:00,30.1,26.0,29.92,NW,319,9.0,13.0,86,0.00,,,0.00,weatherlink.com 1.10,2016-12-03 08:53:00,
2016-12-03 04:08:00,30.1,26.0,29.93,NW,325,10.0,18.0,85,0.00,,,0.00,weatherlink.com 1.10,2016-12-03 09:08:00,
2016-12-03 04:23:00,30.3,26.0,29.93,North,359,13.0,19.0,84,0.00,,,0.00,weatherlink.com 1.10,2016-12-03 09:23:00,
2016-12-03 04:38:00,30.3,26.0,29.93,NNW,338,10.0,15.0,84,0.00,,,0.00,weatherlink.com 1.10,2016-12-03 09:38:00,
2016-12-03 04:53:00,30.3,26.0,29.94,NNW,336,8.0,19.0,84,0.00,,,0.00,weatherlink.com 1.10,2016-12-03 09:53:00,
2016-12-03 05:08:00,30.1,26.0,29.94,NNW,340,10.0,15.0,84,0.00,,,0.00,weatherlink.com 1.10,2016-12-03 10:08:00,
2016-12-03 05:23:00,30.3,26.0,29.95,NW,314,8.0,18.0,83,0.00,,,0.00,weatherlink.com 1.10,2016-12-03 10:23:00,
2016-12-03 05:38:00,30.3,25.0,29.95,NNW,332,10.0,26.0,82,0.00,,,0.00,weatherlink.com 1.10,2016-12-03 10:38:00,
2016-12-03 05:53:00,30.3,25.0,29.96,NW,311,11.0,20.0,80,0.00,,,0.00,weatherlink.com 1.10,2016-12-03 10:53:00,
2016-12-03 06:08:00,30.1,26.0,29.97,NW,319,10.0,16.0,83,0.00,,,0.00,weatherlink.com 1.10,2016-12-03 11:08:00,
2016-12-03 06:23:00,30.1,26.0,29.97,NNW,333,14.0,17.0,83,0.00,,,0.00,weatherlink.com 1.10,2016-12-03 11:23:00,
2016-12-03 06:38:00,30.1,26.0,29.98,NNW,342,10.0,21.0,83,0.00,,,0.00,weatherlink.com 1.10,2016-12-03 11:38:00,
2016-12-03 06:54:00,30.0,26.0,29.98,NW,318,9.0,21.0,84,0.00,,,0.00,weatherlink.com 1.10,2016-12-03 11:54:00,
2016-12-03 07:09:00,30.0,26.0,29.99,NW,311,10.0,16.0,84,0.00,,,0.00,weatherlink.com 1.10,2016-12-03 12:09:00,
2016-12-03 07:24:00,29.8,26.0,30.00,NNW,347,8.0,17.0,85,0.00,,,0.00,weatherlink.com 1.10,2016-12-03 12:24:00,
2016-12-03 07:39:00,30.0,25.0,30.00,NNW,341,13.0,17.0,83,0.00,,,0.00,weatherlink.com 1.10,2016-12-03 12:39:00,
2016-12-03 07:54:00,29.8,25.0,30.00,NNW,342,10.0,19.0,83,0.00,,,0.00,weatherlink.com 1.10,2016-12-03 12:54:00,
2016-12-03 08:08:00,29.7,25.0,30.01,NNW,338,6.0,14.0,84,0.00,,,0.00,weatherlink.com 1.10,2016-12-03 13:08:00,
2016-12-03 08:24:00,29.7,25.0,30.02,NNW,342,7.0,15.0,83,0.00,,,0.00,weatherlink.com 1.10,2016-12-03 13:24:00,
2016-12-03 08:39:00,29.7,25.0,30.02,NW,321,12.0,15.0,83,0.00,,,0.00,weatherlink.com 1.10,2016-12-03 13:39:00,